Location: Newark
(23.2528°N, 105.1886°E)
Time: 11:50:05
(UTC+00:00)

Hubble Space Telescope - Visible Passes

Search period start: 20 October 2019 00:00
Search period end: 30 October 2019 00:00
Orbit: 536 x 540 km, 28.5° (Epoch: 19 October)

Date Brightness Start Highest point End Pass type
(mag) Time Alt. Az. Time Alt. Az. Time Alt. Az.
24 Oct 3.5 21:23:48 10° S 21:25:35 12° SSE 21:27:22 10° SE visible
25 Oct 3.1 21:13:40 15° S 21:14:57 17° SSE 21:17:38 10° ESE visible
26 Oct 2.7 21:04:17 22° SSE 21:04:19 22° SSE 21:07:33 10° E visible
27 Oct 2.8 20:54:49 25° SE 20:54:49 25° SE 20:57:17 10° E visible
27 Oct 0.7 22:30:38 10° WSW 22:34:45 77° NNW 22:38:52 10° ENE visible
28 Oct 3.2 20:45:15 21° E 20:45:15 21° E 20:46:55 10° E visible
28 Oct 0.8 22:20:37 13° W 22:24:12 64° NNW 22:28:18 10° ENE visible
29 Oct 3.7 20:35:36 16° E 20:35:36 16° E 20:36:29 10° E visible
29 Oct 1.0 22:10:57 19° W 22:13:41 55° NNW 22:17:44 10° ENE visible
